| time (UTC) | temp C | wind direction | speed KPH | gust KPH | rain 1hr cm | rain 24hr cm | rain mn cm | humidity % | barometer mb |
| 20260506022745 | 3 | 45 | 1.6 | 9.7 | 0.00 | 0.00 | 0.00 | 49 | 1024.3 |
| 20260506012749 | 4 | 360 | 6.4 | 11.3 | 0.00 | 0.00 | 0.00 | 51 | 1024.5 |
| 20260506005747 | 4 | 360 | 6.4 | 11.3 | 0.00 | 0.00 | 0.00 | 52 | 1024.5 |
| 20260506002744 | 4 | 45 | 8.0 | 14.5 | 0.00 | 0.00 | 0.00 | 53 | 1024.5 |
| 20260505235743 | 5 | 360 | 6.4 | 12.9 | 0.00 | 0.00 | 0.00 | 51 | 1024.6 |
| 20260505232742 | 5 | 360 | 8.0 | 16.1 | 0.00 | 0.00 | 0.00 | 42 | 1024.4 |
| 20260505222743 | 5 | 360 | 9.7 | 14.5 | 0.00 | 0.00 | 0.00 | 35 | 1024.4 |
| 20260505215743 | 5 | 45 | 9.7 | 17.7 | 0.00 | 0.00 | 0.00 | 31 | 1024.5 |
| 20260505212742 | 5 | 360 | 11.3 | 19.3 | 0.00 | 0.00 | 0.00 | 26 | 1024.4 |
| 20260505205746 | 5 | 360 | 9.7 | 19.3 | 0.00 | 0.00 | 0.00 | 18 | 1024.4 |
| 20260505202750 | 5 | 360 | 12.9 | 22.5 | 0.00 | 0.00 | 0.00 | 21 | 1024.5 |
| 20260505195744 | 5 | 292 | 12.9 | 22.5 | 0.00 | 0.00 | 0.00 | 10 | 1024.5 |
| 20260505192746 | 6 | 360 | 14.5 | 20.9 | 0.00 | 0.00 | 0.00 | 10 | 1024.4 |
| 20260505185746 | 6 | 360 | 16.1 | 20.9 | 0.00 | 0.00 | 0.00 | 10 | 1023.9 |
| 20260505182745 | 7 | 360 | 8.0 | 16.1 | 0.00 | 0.00 | 0.00 | 10 | 1023.7 |
| 20260505175745 | 7 | 270 | 8.0 | 17.7 | 0.00 | 0.00 | 0.00 | 10 | 1024.0 |
| 20260505172746 | 8 | 270 | 14.5 | 24.1 | 0.00 | 0.00 | 0.00 | 10 | 1023.7 |
| 20260505165745 | 8 | 270 | 12.9 | 25.7 | 0.00 | 0.00 | 0.00 | 10 | 1023.7 |
| 20260505152746 | 8 | 360 | 14.5 | 20.9 | 0.00 | 0.00 | 0.00 | 10 | 1023.7 |
| 20260505115745 | 7 | 360 | 14.5 | 20.9 | 0.00 | 0.00 | 0.00 | 10 | 1023.7 |
| 20260505112742 | 7 | 360 | 6.4 | 14.5 | 0.00 | 0.00 | 0.00 | 10 | 1023.6 |
| 20260505095746 | 6 | 360 | 8.0 | 12.9 | 0.00 | 0.00 | 0.00 | 10 | 1023.6 |
| 20260505085746 | 6 | 360 | 8.0 | 9.7 | 0.00 | 0.00 | 0.00 | 10 | 1023.4 |
| 20260505075744 | 7 | 360 | 0.0 | 4.8 | 0.00 | 0.00 | 0.00 | 10 | 1023.0 |
| 20260505072745 | 7 | 360 | 0.0 | 4.8 | 0.00 | 0.00 | 0.00 | 10 | 1023.0 |
| 20260505062744 | 6 | 360 | 0.0 | 4.8 | 0.00 | 0.00 | 0.00 | 35 | 1022.7 |
| 20260505055744 | 6 | 360 | 1.6 | 4.8 | 0.00 | 0.00 | 0.00 | 81 | 1023.0 |
| 20260505052745 | 4 | 45 | 0.0 | 6.4 | 0.00 | 0.00 | 0.00 | 99 | 1023.1 |
| 20260505035744 | 2 | 45 | 0.0 | 4.8 | 0.00 | 0.00 | 0.00 | 92 | 1022.2 |
| 20260505032744 | 3 | 45 | 0.0 | 6.4 | 0.00 | 0.00 | 0.00 | 89 | 1022.5 |
| 20260505025744 | 2 | 45 | 3.2 | 8.0 | 0.00 | 0.00 | 0.00 | 99 | 1022.4 |